• In Österreich
  • Länderverzeichnis
  • Für 7 Tage
  • Wassertemperatur
  • Satellitenkarten
  • Wetterkarte
  • News
  • Widgets
  • user-avatar
    Anmelden

    Stündliche Wetter Karolewo

    Heute, 22 September, Samstag

    Zeit Temperatur Niederschläge Wind Luftdruck Luftfeuchtigkeit
    00:00 +13°C° 0 mm 5 m/S 753 mmHg 74%
    01:00 +13°C° 0 mm 4 m/S 754 mmHg 72%
    02:00 +12°C° 0 mm 4 m/S 754 mmHg 72%
    03:00 +12°C° 0 mm 4 m/S 754 mmHg 72%
    04:00 +10°C° 0 mm 5 m/S 754 mmHg 71%
    05:00 +10°C° 0 mm 5 m/S 755 mmHg 70%
    06:00 +12°C° 0 mm 5 m/S 755 mmHg 69%
    07:00 +11°C° 0 mm 6 m/S 756 mmHg 68%
    08:00 +11°C° 0 mm 6 m/S 756 mmHg 65%
    09:00 +13°C° 0 mm 6 m/S 756 mmHg 63%
    10:00 +14°C° 0 mm 6 m/S 756 mmHg 60%
    11:00 +15°C° 0 mm 6 m/S 756 mmHg 57%
    12:00 +16°C° 0 mm 6 m/S 756 mmHg 54%
    13:00 +16°C° 0 mm 6 m/S 756 mmHg 51%
    14:00 +17°C° 0.1 mm 6 m/S 756 mmHg 49%
    15:00 +17°C° 0.1 mm 5 m/S 756 mmHg 48%
    16:00 +17°C° 0.1 mm 5 m/S 756 mmHg 47%
    17:00 +16°C° 0.1 mm 5 m/S 756 mmHg 50%
    18:00 +15°C° 0.1 mm 4 m/S 756 mmHg 53%
    19:00 +14°C° 0.1 mm 3 m/S 756 mmHg 56%
    20:00 +14°C° 0 mm 3 m/S 756 mmHg 58%
    21:00 +13°C° 0 mm 3 m/S 756 mmHg 60%
    22:00 +13°C° 0 mm 3 m/S 756 mmHg 61%
    23:00 +13°C° 0.1 mm 3 m/S 756 mmHg 65%

    Morgen, 23 September, Sonntag

    Zeit Temperatur Niederschläge Wind Luftdruck Luftfeuchtigkeit
    00:00 +12°C° 0.1 mm 4 m/S 756 mmHg 69%
    01:00 +12°C° 0.1 mm 4 m/S 756 mmHg 73%
    02:00 +12°C° 0.1 mm 4 m/S 756 mmHg 77%
    03:00 +11°C° 0.1 mm 4 m/S 756 mmHg 80%
    04:00 +11°C° 0.1 mm 4 m/S 756 mmHg 84%
    05:00 +11°C° 0 mm 3 m/S 755 mmHg 84%
    06:00 +11°C° 0 mm 3 m/S 755 mmHg 85%
    07:00 +11°C° 0 mm 3 m/S 755 mmHg 86%
    08:00 +12°C° 0 mm 3 m/S 755 mmHg 79%
    09:00 +13°C° 0 mm 3 m/S 755 mmHg 72%
    10:00 +14°C° 0 mm 3 m/S 755 mmHg 64%
    11:00 +14°C° 0.1 mm 3 m/S 755 mmHg 65%
    12:00 +14°C° 0.1 mm 3 m/S 754 mmHg 65%
    13:00 +14°C° 0.1 mm 3 m/S 754 mmHg 65%
    14:00 +15°C° 0.1 mm 2 m/S 753 mmHg 67%
    15:00 +14°C° 0.1 mm 2 m/S 752 mmHg 70%
    16:00 +14°C° 0.1 mm 1 m/S 751 mmHg 72%
    17:00 +13°C° 2.6 mm 2 m/S 750 mmHg 79%
    18:00 +11°C° 2.6 mm 3 m/S 749 mmHg 85%
    19:00 +10°C° 2.6 mm 3 m/S 748 mmHg 92%
    20:00 +10°C° 1.5 mm 4 m/S 748 mmHg 91%
    21:00 +10°C° 1.5 mm 4 m/S 748 mmHg 90%
    22:00 +10°C° 1.5 mm 4 m/S 748 mmHg 90%
    23:00 +9°C° 1 mm 5 m/S 748 mmHg 88%

    übermorgen, 24 September, Montag

    Zeit Temperatur Niederschläge Wind Luftdruck Luftfeuchtigkeit
    00:00 +9°C° 1 mm 5 m/S 749 mmHg 87%
    01:00 +9°C° 1 mm 5 m/S 750 mmHg 85%
    02:00 +9°C° 0.2 mm 6 m/S 751 mmHg 84%
    03:00 +9°C° 0.2 mm 6 m/S 752 mmHg 83%
    04:00 +9°C° 0.2 mm 6 m/S 754 mmHg 82%
    05:00 +8°C° 0 mm 7 m/S 754 mmHg 80%
    06:00 +8°C° 0 mm 7 m/S 755 mmHg 79%
    07:00 +8°C° 0 mm 7 m/S 756 mmHg 77%
    08:00 +9°C° 0 mm 8 m/S 757 mmHg 70%
    09:00 +10°C° 0 mm 8 m/S 757 mmHg 63%
    10:00 +11°C° 0 mm 9 m/S 758 mmHg 56%
    11:00 +11°C° 0.1 mm 9 m/S 759 mmHg 52%
    12:00 +12°C° 0.1 mm 10 m/S 759 mmHg 49%
    13:00 +13°C° 0.1 mm 10 m/S 760 mmHg 45%
    14:00 +12°C° 0.1 mm 9 m/S 760 mmHg 46%
    15:00 +12°C° 0.1 mm 8 m/S 761 mmHg 46%
    16:00 +12°C° 0.1 mm 7 m/S 761 mmHg 47%
    17:00 +10°C° 0 mm 6 m/S 762 mmHg 51%
    18:00 +9°C° 0 mm 5 m/S 762 mmHg 55%
    19:00 +8°C° 0 mm 4 m/S 763 mmHg 59%
    20:00 +8°C° 0 mm 4 m/S 764 mmHg 60%
    21:00 +7°C° 0 mm 4 m/S 764 mmHg 62%
    22:00 +7°C° 0 mm 4 m/S 765 mmHg 63%
    23:00 +7°C° 0 mm 4 m/S 765 mmHg 66%

    25 September, Dienstag

    Zeit Temperatur Niederschläge Wind Luftdruck Luftfeuchtigkeit
    00:00 +6°C° 0 mm 4 m/S 766 mmHg 68%
    01:00 +6°C° 0 mm 4 m/S 766 mmHg 71%
    02:00 +6°C° 0 mm 4 m/S 767 mmHg 73%
    03:00 +6°C° 0 mm 4 m/S 767 mmHg 74%
    04:00 +5°C° 0 mm 3 m/S 768 mmHg 76%
    05:00 +5°C° 0 mm 3 m/S 768 mmHg 76%
    06:00 +7°C° 0 mm 3 m/S 769 mmHg 76%
    07:00 +7°C° 0 mm 3 m/S 769 mmHg 76%
    08:00 +8°C° 0 mm 3 m/S 770 mmHg 67%
    09:00 +10°C° 0 mm 3 m/S 770 mmHg 58%
    10:00 +12°C° 0 mm 3 m/S 771 mmHg 48%
    11:00 +13°C° 0 mm 3 m/S 771 mmHg 45%
    12:00 +14°C° 0 mm 3 m/S 771 mmHg 42%
    13:00 +14°C° 0 mm 3 m/S 771 mmHg 39%
    14:00 +14°C° 0 mm 3 m/S 771 mmHg 40%
    15:00 +14°C° 0 mm 3 m/S 771 mmHg 40%
    16:00 +14°C° 0 mm 3 m/S 771 mmHg 41%
    17:00 +12°C° 0 mm 3 m/S 771 mmHg 46%
    18:00 +12°C° 0 mm 2 m/S 771 mmHg 50%
    19:00 +9°C° 0 mm 2 m/S 771 mmHg 55%
    20:00 +9°C° 0 mm 2 m/S 771 mmHg 57%
    21:00 +8°C° 0 mm 2 m/S 771 mmHg 60%
    22:00 +8°C° 0 mm 2 m/S 771 mmHg 62%
    23:00 +8°C° 0 mm 2 m/S 771 mmHg 64%

    26 September, Mittwoch

    Zeit Temperatur Niederschläge Wind Luftdruck Luftfeuchtigkeit
    00:00 +7°C° 0 mm 2 m/S 771 mmHg 65%
    01:00 +7°C° 0 mm 2 m/S 771 mmHg 67%
    02:00 +7°C° 0 mm 2 m/S 771 mmHg 68%
    03:00 +6°C° 0 mm 2 m/S 770 mmHg 68%
    04:00 +5°C° 0 mm 3 m/S 770 mmHg 69%
    05:00 +7°C° 0 mm 3 m/S 770 mmHg 68%
    06:00 +7°C° 0 mm 3 m/S 769 mmHg 67%
    07:00 +7°C° 0 mm 3 m/S 769 mmHg 66%
    08:00 +8°C° 0 mm 4 m/S 769 mmHg 60%
    09:00 +11°C° 0 mm 4 m/S 768 mmHg 53%
    10:00 +12°C° 0 mm 5 m/S 768 mmHg 47%
    11:00 +13°C° 0 mm 5 m/S 767 mmHg 44%
    12:00 +14°C° 0 mm 5 m/S 767 mmHg 42%
    13:00 +15°C° 0 mm 6 m/S 766 mmHg 39%
    14:00 +15°C° 0 mm 5 m/S 765 mmHg 39%
    15:00 +15°C° 0 mm 5 m/S 765 mmHg 39%
    16:00 +16°C° 0 mm 5 m/S 764 mmHg 39%
    17:00 +14°C° 0 mm 5 m/S 764 mmHg 42%
    18:00 +13°C° 0 mm 4 m/S 764 mmHg 46%
    19:00 +12°C° 0 mm 4 m/S 764 mmHg 50%
    20:00 +12°C° 0 mm 4 m/S 763 mmHg 51%
    21:00 +11°C° 0 mm 4 m/S 763 mmHg 52%
    22:00 +11°C° 0 mm 4 m/S 763 mmHg 53%
    23:00 +11°C° 0 mm 4 m/S 763 mmHg 55%

    27 September, Donnerstag

    Zeit Temperatur Niederschläge Wind Luftdruck Luftfeuchtigkeit
    00:00 +11°C° 0 mm 4 m/S 763 mmHg 56%
    01:00 +11°C° 0 mm 4 m/S 762 mmHg 57%
    02:00 +10°C° 0 mm 5 m/S 762 mmHg 58%
    03:00 +10°C° 0 mm 5 m/S 761 mmHg 59%
    04:00 +9°C° 0 mm 5 m/S 761 mmHg 60%
    05:00 +9°C° 0 mm 5 m/S 761 mmHg 60%
    06:00 +10°C° 0 mm 5 m/S 760 mmHg 61%
    07:00 +10°C° 0 mm 5 m/S 760 mmHg 61%
    08:00 +11°C° 0 mm 6 m/S 760 mmHg 57%
    09:00 +13°C° 0 mm 6 m/S 759 mmHg 53%
    10:00 +15°C° 0 mm 6 m/S 759 mmHg 49%
    11:00 +16°C° 0 mm 6 m/S 758 mmHg 47%
    12:00 +17°C° 0 mm 6 m/S 758 mmHg 46%
    13:00 +19°C° 0 mm 6 m/S 757 mmHg 44%
    14:00 +20°C° 0 mm 6 m/S 757 mmHg 44%
    15:00 +20°C° 0 mm 6 m/S 756 mmHg 45%
    16:00 +20°C° 0 mm 6 m/S 755 mmHg 45%
    17:00 +19°C° 0 mm 6 m/S 755 mmHg 49%
    18:00 +17°C° 0 mm 6 m/S 755 mmHg 52%
    19:00 +16°C° 0 mm 6 m/S 755 mmHg 56%
    20:00 +15°C° 0.1 mm 6 m/S 755 mmHg 62%
    21:00 +15°C° 0.1 mm 6 m/S 756 mmHg 69%
    22:00 +14°C° 0.1 mm 7 m/S 756 mmHg 76%
    23:00 +13°C° 0.1 mm 6 m/S 757 mmHg 76%
    Mehr zeigen